Year,Month,Day,Hour,Minute,Value (Times are PST for temperature in C)
2018,11,27,00,00,9.20
2018,11,27,00,01,9.20
2018,11,27,00,02,9.20
2018,11,27,00,03,9.20
2018,11,27,00,04,9.20
2018,11,27,00,05,9.20
2018,11,27,00,06,9.20
2018,11,27,00,07,9.20
2018,11,27,00,08,9.20
2018,11,27,00,09,9.20
2018,11,27,00,10,9.20
2018,11,27,00,11,9.20
2018,11,27,00,12,9.20
2018,11,27,00,13,9.20
2018,11,27,00,14,9.20
2018,11,27,00,15,9.20
2018,11,27,00,16,9.20
2018,11,27,00,17,9.20
2018,11,27,00,18,9.20
2018,11,27,00,19,9.20
2018,11,27,00,20,9.20
2018,11,27,00,21,9.20
2018,11,27,00,22,9.20
2018,11,27,00,23,9.20
2018,11,27,00,24,9.10
2018,11,27,00,25,9.10
2018,11,27,00,26,9.10
2018,11,27,00,27,9.10
2018,11,27,00,28,9.10
2018,11,27,00,29,9.10
2018,11,27,00,30,9.10
2018,11,27,00,31,9.10
2018,11,27,00,32,9.10
2018,11,27,00,33,9.10
2018,11,27,00,34,9.10
2018,11,27,00,35,9.10
2018,11,27,00,36,9.10
2018,11,27,00,37,9.10
2018,11,27,00,38,9.10
2018,11,27,00,39,9.10
2018,11,27,00,40,9.10
2018,11,27,00,41,9.10
2018,11,27,00,42,9.10
2018,11,27,00,43,9.10
2018,11,27,00,44,9.10
2018,11,27,00,45,9.10
2018,11,27,00,46,9.10
2018,11,27,00,47,9.10
2018,11,27,00,48,9.10
2018,11,27,00,49,9.10
2018,11,27,00,50,9.10
2018,11,27,00,51,9.10
2018,11,27,00,52,9.10
2018,11,27,00,53,9.10
2018,11,27,00,54,9.10
2018,11,27,00,55,9.10
2018,11,27,00,56,9.20
2018,11,27,00,57,9.10
2018,11,27,00,58,9.10
2018,11,27,00,59,9.20
2018,11,27,01,00,9.20
2018,11,27,01,01,9.20
2018,11,27,01,02,9.20
2018,11,27,01,03,9.20
2018,11,27,01,04,9.20
2018,11,27,01,05,9.20
2018,11,27,01,06,9.20
2018,11,27,01,07,9.20
2018,11,27,01,08,9.20
2018,11,27,01,09,9.20
2018,11,27,01,10,9.20
2018,11,27,01,11,9.20
2018,11,27,01,12,9.20
2018,11,27,01,13,9.20
2018,11,27,01,14,9.20
2018,11,27,01,15,9.20
2018,11,27,01,16,9.20
2018,11,27,01,17,9.20
2018,11,27,01,18,9.20
2018,11,27,01,19,9.20
2018,11,27,01,20,9.20
2018,11,27,01,21,9.20
2018,11,27,01,22,9.20
2018,11,27,01,23,9.20
2018,11,27,01,24,9.20
2018,11,27,01,25,9.20
2018,11,27,01,26,9.20
2018,11,27,01,27,9.20
2018,11,27,01,28,9.20
2018,11,27,01,29,9.20
2018,11,27,01,30,9.20
2018,11,27,01,31,9.20
2018,11,27,01,32,9.20
2018,11,27,01,33,9.20
2018,11,27,01,34,9.20
2018,11,27,01,35,9.20
2018,11,27,01,36,9.20
2018,11,27,01,37,9.20
2018,11,27,01,38,9.20
2018,11,27,01,39,9.20
2018,11,27,01,40,9.20
2018,11,27,01,41,9.20
2018,11,27,01,42,9.20
2018,11,27,01,43,9.20
2018,11,27,01,44,9.20
2018,11,27,01,45,9.20
2018,11,27,01,46,9.20
2018,11,27,01,47,9.20
2018,11,27,01,48,9.20
2018,11,27,01,49,9.20
2018,11,27,01,50,9.20
2018,11,27,01,51,9.10
2018,11,27,01,52,9.10
2018,11,27,01,53,9.10
2018,11,27,01,54,9.10
2018,11,27,01,55,9.10
2018,11,27,01,56,9.10
2018,11,27,01,57,9.10
2018,11,27,01,58,9.10
2018,11,27,01,59,9.10
2018,11,27,02,00,9.10
2018,11,27,02,01,9.10
2018,11,27,02,02,9.10
2018,11,27,02,03,9.10
2018,11,27,02,04,9.10
2018,11,27,02,05,9.10
2018,11,27,02,06,9.10
2018,11,27,02,07,9.10
2018,11,27,02,08,9.10
2018,11,27,02,09,9.10
2018,11,27,02,10,9.10
2018,11,27,02,11,9.10
2018,11,27,02,12,9.10
2018,11,27,02,13,9.10
2018,11,27,02,14,9.10
2018,11,27,02,15,9.10
2018,11,27,02,16,9.10
2018,11,27,02,17,9.10
2018,11,27,02,18,9.10
2018,11,27,02,19,9.10
2018,11,27,02,20,9.00
2018,11,27,02,21,9.00
2018,11,27,02,22,9.00
2018,11,27,02,23,9.00
2018,11,27,02,24,9.00
2018,11,27,02,25,9.00
2018,11,27,02,26,9.00
2018,11,27,02,27,9.00
2018,11,27,02,28,9.00
2018,11,27,02,29,9.00
2018,11,27,02,30,9.00
2018,11,27,02,31,9.00
2018,11,27,02,32,9.00
2018,11,27,02,33,9.00
2018,11,27,02,34,9.00
2018,11,27,02,35,9.00
2018,11,27,02,36,9.00
2018,11,27,02,37,9.00
2018,11,27,02,38,9.00
2018,11,27,02,39,9.00
2018,11,27,02,40,9.00
2018,11,27,02,41,9.00
2018,11,27,02,42,9.00
2018,11,27,02,43,9.00
2018,11,27,02,44,9.00
2018,11,27,02,45,9.00
2018,11,27,02,46,9.00
2018,11,27,02,47,9.00
2018,11,27,02,48,9.00
2018,11,27,02,49,9.00
2018,11,27,02,50,9.00
2018,11,27,02,51,9.00
2018,11,27,02,52,9.00
2018,11,27,02,53,9.00
2018,11,27,02,54,9.00
2018,11,27,02,55,9.00
2018,11,27,02,56,9.00
2018,11,27,02,57,8.90
2018,11,27,02,58,8.90
2018,11,27,02,59,8.90
2018,11,27,03,00,8.90
2018,11,27,03,01,8.90
2018,11,27,03,02,8.90
2018,11,27,03,03,8.90
2018,11,27,03,04,9.00
2018,11,27,03,05,9.00
2018,11,27,03,06,9.00
2018,11,27,03,07,9.00
2018,11,27,03,08,9.00
2018,11,27,03,09,9.00
2018,11,27,03,10,9.00
2018,11,27,03,11,9.00
2018,11,27,03,12,9.00
2018,11,27,03,13,9.00
2018,11,27,03,14,9.00
2018,11,27,03,15,9.00
2018,11,27,03,16,9.00
2018,11,27,03,17,9.00
2018,11,27,03,18,9.10
2018,11,27,03,19,9.10
2018,11,27,03,20,9.10
2018,11,27,03,21,9.10
2018,11,27,03,22,9.10
2018,11,27,03,23,9.10
2018,11,27,03,24,9.10
2018,11,27,03,25,9.10
2018,11,27,03,26,9.10
2018,11,27,03,27,9.10
2018,11,27,03,28,9.10
2018,11,27,03,29,9.10
2018,11,27,03,30,9.10
2018,11,27,03,31,9.10
2018,11,27,03,32,9.10
2018,11,27,03,33,9.10
2018,11,27,03,34,9.10
2018,11,27,03,35,9.10
2018,11,27,03,36,9.10
2018,11,27,03,37,9.10
2018,11,27,03,38,9.10
2018,11,27,03,39,9.10
2018,11,27,03,40,9.10
2018,11,27,03,41,9.20
2018,11,27,03,42,9.20
2018,11,27,03,43,9.20
2018,11,27,03,44,9.20
2018,11,27,03,45,9.20
2018,11,27,03,46,9.20
2018,11,27,03,47,9.20
2018,11,27,03,48,9.20
2018,11,27,03,49,9.20
2018,11,27,03,50,9.20
2018,11,27,03,51,9.20
2018,11,27,03,52,9.20
2018,11,27,03,53,9.20
2018,11,27,03,54,9.20
2018,11,27,03,55,9.20
2018,11,27,03,56,9.20
2018,11,27,03,57,9.20
2018,11,27,03,58,9.20
2018,11,27,03,59,9.20
2018,11,27,04,00,9.20
2018,11,27,04,01,9.20
2018,11,27,04,02,9.20
2018,11,27,04,03,9.20
2018,11,27,04,04,9.20
2018,11,27,04,05,9.20
2018,11,27,04,06,9.20
2018,11,27,04,07,9.30
2018,11,27,04,08,9.30
2018,11,27,04,09,9.30
2018,11,27,04,10,9.30
2018,11,27,04,11,9.30
2018,11,27,04,12,9.30
2018,11,27,04,13,9.30
2018,11,27,04,14,9.30
2018,11,27,04,15,9.30
2018,11,27,04,16,9.30
2018,11,27,04,17,9.20
2018,11,27,04,18,9.30
2018,11,27,04,19,9.30
2018,11,27,04,20,9.30
2018,11,27,04,21,9.30
2018,11,27,04,22,9.30
2018,11,27,04,23,9.30
2018,11,27,04,24,9.30
2018,11,27,04,25,9.30
2018,11,27,04,26,9.30
2018,11,27,04,27,9.30
2018,11,27,04,28,9.30
2018,11,27,04,29,9.30
2018,11,27,04,30,9.30
2018,11,27,04,31,9.30
2018,11,27,04,32,9.30
2018,11,27,04,33,9.30
2018,11,27,04,34,9.30
2018,11,27,04,35,9.30
2018,11,27,04,36,9.30
2018,11,27,04,37,9.30
2018,11,27,04,38,9.30
2018,11,27,04,39,9.30
2018,11,27,04,40,9.30
2018,11,27,04,41,9.30
2018,11,27,04,42,9.30
2018,11,27,04,43,9.30
2018,11,27,04,44,9.30
2018,11,27,04,45,9.30
2018,11,27,04,46,9.30
2018,11,27,04,47,9.40
2018,11,27,04,48,9.30
2018,11,27,04,49,9.30
2018,11,27,04,50,9.30
2018,11,27,04,51,9.30
2018,11,27,04,52,9.30
2018,11,27,04,53,9.30
2018,11,27,04,54,9.30
2018,11,27,04,55,9.30
2018,11,27,04,56,9.30
2018,11,27,04,57,9.30
2018,11,27,04,58,9.30
2018,11,27,04,59,9.30
2018,11,27,05,00,9.30
2018,11,27,05,01,9.30
2018,11,27,05,02,9.30
2018,11,27,05,03,9.30
2018,11,27,05,04,9.30
2018,11,27,05,05,9.30
2018,11,27,05,06,9.30
2018,11,27,05,07,9.30
2018,11,27,05,08,9.40
2018,11,27,05,09,9.30
2018,11,27,05,10,9.40
2018,11,27,05,11,9.30
2018,11,27,05,12,9.30
2018,11,27,05,13,9.40
2018,11,27,05,14,9.40
2018,11,27,05,15,9.40
2018,11,27,05,16,9.40
2018,11,27,05,17,9.40
2018,11,27,05,18,9.40
2018,11,27,05,19,9.40
2018,11,27,05,20,9.30
2018,11,27,05,21,9.30
2018,11,27,05,22,9.30
2018,11,27,05,23,9.30
2018,11,27,05,24,9.30
2018,11,27,05,25,9.30
2018,11,27,05,26,9.30
2018,11,27,05,27,9.40
2018,11,27,05,28,9.40
2018,11,27,05,29,9.50
2018,11,27,05,30,9.60
2018,11,27,05,31,9.60
2018,11,27,05,32,9.70
2018,11,27,05,33,9.70
2018,11,27,05,34,9.70
2018,11,27,05,35,9.70
2018,11,27,05,36,9.80
2018,11,27,05,37,9.80
2018,11,27,05,38,9.80
2018,11,27,05,39,9.80
2018,11,27,05,40,9.80
2018,11,27,05,41,9.80
2018,11,27,05,42,9.80
2018,11,27,05,43,9.80
2018,11,27,05,44,9.80
2018,11,27,05,45,9.70
2018,11,27,05,46,9.70
2018,11,27,05,47,9.70
2018,11,27,05,48,9.70
2018,11,27,05,49,9.70
2018,11,27,05,50,9.70
2018,11,27,05,51,9.70
2018,11,27,05,52,9.70
2018,11,27,05,53,9.60
2018,11,27,05,54,9.60
2018,11,27,05,55,9.70
2018,11,27,05,56,9.70
2018,11,27,05,57,9.80
2018,11,27,05,58,9.80
2018,11,27,05,59,9.80
2018,11,27,06,00,9.80
2018,11,27,06,01,9.80
2018,11,27,06,02,9.80
2018,11,27,06,03,9.80
2018,11,27,06,04,9.80
2018,11,27,06,05,9.90
2018,11,27,06,06,10.00
2018,11,27,06,07,10.00
2018,11,27,06,08,10.00
2018,11,27,06,09,10.10
2018,11,27,06,10,10.20
2018,11,27,06,11,10.30
2018,11,27,06,12,10.30
2018,11,27,06,13,10.40
2018,11,27,06,14,10.40
2018,11,27,06,15,10.40
2018,11,27,06,16,10.40
2018,11,27,06,17,10.40
2018,11,27,06,18,10.50
2018,11,27,06,19,10.50
2018,11,27,06,20,10.60
2018,11,27,06,21,10.70
2018,11,27,06,22,10.80
2018,11,27,06,23,10.80
2018,11,27,06,24,10.80
2018,11,27,06,25,10.90
2018,11,27,06,26,10.90
2018,11,27,06,27,11.00
2018,11,27,06,28,11.00
2018,11,27,06,29,11.00
2018,11,27,06,30,11.00
2018,11,27,06,31,10.90
2018,11,27,06,32,10.80
2018,11,27,06,33,10.80
2018,11,27,06,34,10.70
2018,11,27,06,35,10.70
2018,11,27,06,36,10.60
2018,11,27,06,37,10.60
2018,11,27,06,38,10.70
2018,11,27,06,39,10.80
2018,11,27,06,40,10.80
2018,11,27,06,41,10.80
2018,11,27,06,42,10.70
2018,11,27,06,43,10.70
2018,11,27,06,44,10.60
2018,11,27,06,45,10.60
2018,11,27,06,46,10.60
2018,11,27,06,47,10.60
2018,11,27,06,48,10.50
2018,11,27,06,49,10.40
2018,11,27,06,50,10.30
2018,11,27,06,51,10.30
2018,11,27,06,52,10.20
2018,11,27,06,53,10.20
2018,11,27,06,54,10.20
2018,11,27,06,55,10.20
2018,11,27,06,56,10.20
2018,11,27,06,57,10.20
2018,11,27,06,58,10.10
2018,11,27,06,59,10.10
2018,11,27,07,00,10.10
2018,11,27,07,01,10.00
2018,11,27,07,02,9.90
2018,11,27,07,03,9.80
2018,11,27,07,04,9.80
2018,11,27,07,05,9.70
2018,11,27,07,06,9.60
2018,11,27,07,07,9.50
2018,11,27,07,08,9.50
2018,11,27,07,09,9.40
2018,11,27,07,10,9.40
2018,11,27,07,11,9.40
2018,11,27,07,12,9.40
2018,11,27,07,13,9.30
2018,11,27,07,14,9.30
2018,11,27,07,15,9.30
2018,11,27,07,16,9.40
2018,11,27,07,17,9.40
2018,11,27,07,18,9.40
2018,11,27,07,19,9.50
2018,11,27,07,20,9.50
2018,11,27,07,21,9.50
2018,11,27,07,22,9.50
2018,11,27,07,23,9.50
2018,11,27,07,24,9.40
2018,11,27,07,25,9.40
2018,11,27,07,26,9.40
2018,11,27,07,27,9.40
2018,11,27,07,28,9.40
2018,11,27,07,29,9.40
2018,11,27,07,30,9.40
2018,11,27,07,31,9.40
2018,11,27,07,32,9.40
2018,11,27,07,33,9.40
2018,11,27,07,34,9.40
2018,11,27,07,35,9.40
2018,11,27,07,36,9.40
2018,11,27,07,37,9.40
2018,11,27,07,38,9.40
2018,11,27,07,39,9.30
2018,11,27,07,40,9.30
2018,11,27,07,41,9.30
2018,11,27,07,42,9.30
2018,11,27,07,43,9.30
2018,11,27,07,44,9.30
2018,11,27,07,45,9.30
2018,11,27,07,46,9.30
2018,11,27,07,47,9.30
2018,11,27,07,48,9.30
2018,11,27,07,49,9.20
2018,11,27,07,50,9.20
2018,11,27,07,51,9.10
2018,11,27,07,52,9.10
2018,11,27,07,53,9.00
2018,11,27,07,54,9.00
2018,11,27,07,55,8.90
2018,11,27,07,56,8.90
2018,11,27,07,57,8.90
2018,11,27,07,58,8.80
2018,11,27,07,59,8.80
2018,11,27,08,00,8.80
2018,11,27,08,01,8.80
2018,11,27,08,02,8.80
2018,11,27,08,03,8.80
2018,11,27,08,04,8.90
2018,11,27,08,05,8.90
2018,11,27,08,06,8.90
2018,11,27,08,07,8.90
2018,11,27,08,08,8.80
2018,11,27,08,09,8.80
2018,11,27,08,10,8.80
2018,11,27,08,11,8.90
2018,11,27,08,12,8.90
2018,11,27,08,13,8.90
2018,11,27,08,14,8.90
2018,11,27,08,15,8.90
2018,11,27,08,16,8.90
2018,11,27,08,17,8.90
2018,11,27,08,18,8.90
2018,11,27,08,19,9.00
2018,11,27,08,20,9.10
2018,11,27,08,21,9.10
2018,11,27,08,22,9.20
2018,11,27,08,23,9.30
2018,11,27,08,24,9.40
2018,11,27,08,25,9.40
2018,11,27,08,26,9.40
2018,11,27,08,27,9.40
2018,11,27,08,28,9.40
2018,11,27,08,29,9.40
2018,11,27,08,30,9.40
2018,11,27,08,31,9.40
2018,11,27,08,32,9.40
2018,11,27,08,33,9.40
2018,11,27,08,34,9.40
2018,11,27,08,35,9.40
2018,11,27,08,36,9.40
2018,11,27,08,37,9.30
2018,11,27,08,38,9.30
2018,11,27,08,39,9.30
2018,11,27,08,40,9.30
2018,11,27,08,41,9.30
2018,11,27,08,42,9.30
2018,11,27,08,43,9.30
2018,11,27,08,44,9.30
2018,11,27,08,45,9.30
2018,11,27,08,46,9.40
2018,11,27,08,47,9.40
2018,11,27,08,48,9.40
2018,11,27,08,49,9.40
2018,11,27,08,50,9.40
2018,11,27,08,51,9.40
2018,11,27,08,52,9.40
2018,11,27,08,53,9.40
2018,11,27,08,54,9.40
2018,11,27,08,55,9.40
2018,11,27,08,56,9.40
2018,11,27,08,57,9.50
2018,11,27,08,58,9.50
2018,11,27,08,59,9.50
2018,11,27,09,00,9.50
2018,11,27,09,01,9.50
2018,11,27,09,02,9.50
2018,11,27,09,03,9.50
2018,11,27,09,04,9.50
2018,11,27,09,05,9.50
2018,11,27,09,06,9.50
2018,11,27,09,07,9.50
2018,11,27,09,08,9.40
2018,11,27,09,09,9.40
2018,11,27,09,10,9.50
2018,11,27,09,11,9.70
2018,11,27,09,12,10.00
2018,11,27,09,13,10.20
2018,11,27,09,14,10.30
2018,11,27,09,15,10.40
2018,11,27,09,16,10.40
2018,11,27,09,17,10.50
2018,11,27,09,18,10.50
2018,11,27,09,19,10.50
2018,11,27,09,20,10.60
2018,11,27,09,21,10.70
2018,11,27,09,22,10.70
2018,11,27,09,23,10.70
2018,11,27,09,24,10.70
2018,11,27,09,25,10.60
2018,11,27,09,26,10.60
2018,11,27,09,27,10.60
2018,11,27,09,28,10.50
2018,11,27,09,29,10.50
2018,11,27,09,30,10.50
2018,11,27,09,31,10.40
2018,11,27,09,32,10.40
2018,11,27,09,33,10.40
2018,11,27,09,34,10.40
2018,11,27,09,35,10.40
2018,11,27,09,36,10.30
2018,11,27,09,37,10.30
2018,11,27,09,38,10.30
2018,11,27,09,39,10.30
2018,11,27,09,40,10.30
2018,11,27,09,41,10.30
2018,11,27,09,42,10.30
2018,11,27,09,43,10.30
2018,11,27,09,44,10.40
2018,11,27,09,45,10.40
2018,11,27,09,46,10.40
2018,11,27,09,47,10.40
2018,11,27,09,48,10.60
2018,11,27,09,49,10.60
2018,11,27,09,50,10.70
2018,11,27,09,51,10.70
2018,11,27,09,52,10.70
2018,11,27,09,53,10.80
2018,11,27,09,54,10.90
2018,11,27,09,55,10.90
2018,11,27,09,56,10.90
2018,11,27,09,57,10.90
2018,11,27,09,58,10.90
2018,11,27,09,59,10.90
2018,11,27,10,00,10.90
2018,11,27,10,01,10.90
2018,11,27,10,02,10.90
2018,11,27,10,03,10.90
2018,11,27,10,04,10.90
2018,11,27,10,05,10.90
2018,11,27,10,06,10.90
2018,11,27,10,07,11.00
2018,11,27,10,08,11.00
2018,11,27,10,09,11.10
2018,11,27,10,10,11.20
2018,11,27,10,11,11.20
2018,11,27,10,12,11.40
2018,11,27,10,13,11.40
2018,11,27,10,14,11.50
2018,11,27,10,15,11.60
2018,11,27,10,16,11.70
2018,11,27,10,17,11.70
2018,11,27,10,18,11.80
2018,11,27,10,19,11.80
2018,11,27,10,20,11.80
2018,11,27,10,21,11.80
2018,11,27,10,22,11.80
2018,11,27,10,23,11.80
2018,11,27,10,24,11.80
2018,11,27,10,25,11.80
2018,11,27,10,26,11.80
2018,11,27,10,27,11.80
2018,11,27,21,48,6.20
2018,11,27,21,49,6.10
2018,11,27,21,50,6.10
2018,11,27,21,51,6.10
2018,11,27,21,52,6.10
2018,11,27,21,53,6.00
2018,11,27,21,54,5.90
2018,11,27,21,55,5.90
2018,11,27,21,56,5.80
2018,11,27,21,57,5.80
2018,11,27,21,58,5.80
2018,11,27,21,59,5.80
2018,11,27,22,00,5.80
2018,11,27,22,01,5.80
2018,11,27,22,02,5.80
2018,11,27,22,03,5.80
2018,11,27,22,04,5.70
2018,11,27,22,05,5.70
2018,11,27,22,06,5.70
2018,11,27,22,07,5.70
2018,11,27,22,08,5.70
2018,11,27,22,09,5.70
2018,11,27,22,10,5.70
2018,11,27,22,11,5.70
2018,11,27,22,12,5.60
2018,11,27,22,13,5.50
2018,11,27,22,14,5.50
2018,11,27,22,15,5.50
2018,11,27,22,16,5.40
2018,11,27,22,17,5.40
2018,11,27,22,18,5.40
2018,11,27,22,19,5.40
2018,11,27,22,20,5.40
2018,11,27,22,21,5.40
2018,11,27,22,22,5.40
2018,11,27,22,23,5.40
2018,11,27,22,24,5.40
2018,11,27,22,25,5.40
2018,11,27,22,26,5.40
2018,11,27,22,27,5.40
2018,11,27,22,28,5.40
2018,11,27,22,29,5.40
2018,11,27,22,30,5.40
2018,11,27,22,31,5.50
2018,11,27,22,32,5.50
2018,11,27,22,33,5.60
2018,11,27,22,34,5.60
2018,11,27,22,35,5.60
2018,11,27,22,36,5.50
2018,11,27,22,37,5.50
2018,11,27,22,38,5.40
2018,11,27,22,39,5.40
2018,11,27,22,40,5.40
2018,11,27,22,41,5.40
2018,11,27,22,42,5.30
2018,11,27,22,43,5.30
2018,11,27,22,44,5.30
2018,11,27,22,45,5.30
2018,11,27,22,46,5.30
2018,11,27,22,47,5.30
2018,11,27,22,48,5.30
2018,11,27,22,49,5.20
2018,11,27,22,50,5.20
2018,11,27,22,51,5.20
2018,11,27,22,52,5.20
2018,11,27,22,53,5.30
2018,11,27,22,54,5.30
2018,11,27,22,55,5.30
2018,11,27,22,56,5.30
2018,11,27,22,57,5.30
2018,11,27,22,58,5.30
2018,11,27,22,59,5.30
2018,11,27,23,00,5.30
2018,11,27,23,01,5.30
2018,11,27,23,02,5.30
2018,11,27,23,03,5.20
2018,11,27,23,04,5.30
2018,11,27,23,05,5.30
2018,11,27,23,06,5.30
2018,11,27,23,07,5.30
2018,11,27,23,08,5.30
2018,11,27,23,09,5.30
2018,11,27,23,10,5.30
2018,11,27,23,11,5.30
2018,11,27,23,12,5.30
2018,11,27,23,13,5.30
2018,11,27,23,14,5.30
2018,11,27,23,15,5.30
2018,11,27,23,16,5.40
2018,11,27,23,17,5.40
2018,11,27,23,18,5.40
2018,11,27,23,19,5.40
2018,11,27,23,20,5.50
2018,11,27,23,21,5.50
2018,11,27,23,22,5.50
2018,11,27,23,23,5.50
2018,11,27,23,24,5.50
2018,11,27,23,25,5.50
2018,11,27,23,26,5.60
2018,11,27,23,27,5.60
2018,11,27,23,28,5.70
2018,11,27,23,29,5.70
2018,11,27,23,30,5.70
2018,11,27,23,31,5.70
2018,11,27,23,32,5.70
2018,11,27,23,33,5.70
2018,11,27,23,34,5.70
2018,11,27,23,35,5.70
2018,11,27,23,36,5.60
2018,11,27,23,37,5.50
2018,11,27,23,38,5.30
2018,11,27,23,39,5.30
2018,11,27,23,40,5.20
2018,11,27,23,41,5.20
2018,11,27,23,42,5.10
2018,11,27,23,43,5.10
2018,11,27,23,44,5.10
2018,11,27,23,45,5.10
2018,11,27,23,46,5.10
2018,11,27,23,47,5.10
2018,11,27,23,48,5.20
2018,11,27,23,49,5.20
2018,11,27,23,50,5.20
2018,11,27,23,51,5.20
2018,11,27,23,52,5.30
2018,11,27,23,53,5.30
2018,11,27,23,54,5.30
2018,11,27,23,55,5.40
2018,11,27,23,56,5.40
2018,11,27,23,57,5.40
2018,11,27,23,58,5.30
2018,11,27,23,59,5.30
